Location: Linz
(48.3300°N, 14.3000°E)
Time: 18:08:32
(UTC+02:00)

YUBILEINY - Pass Details

Date: 28 February 2019
Orbit: 1478 x 1508 km, 82.5° (Epoch: 14 October)

Event Time Altitude Azimuth Distance (km) Brightness Sun altitude
Rises 02:31:03 0° 144° (SE) 4,588 ? -40.7°
Reaches altitude 10° 02:34:25 10° 133° (SE) 3,614 ? -40.3°
Maximum altitude 02:41:19 28° 79° (E) 2,517 ? -39.4°
Drops below altitude 10° 02:48:14 10° 26° (NNE) 3,642 ? -38.5°
Sets 02:51:37 0° 16° (NNE) 4,630 ? -38.1°
